Home   Weather   Ballia   Past weeks

Flag for India Past Weather in Ballia, Uttar Pradesh, India — Yesterday and Last 2 Weeks

Now
84 °F

Broken clouds.


Feels Like: 96 °F
Forecast: 79 / 89 °F
Wind: 6 mph from East

Location: Patna Airport

Current Time: Sep 27, 2016 at 12:32:52 PM

Latest Report: Sep 27, 2016 at 12:00 PM


Visibility: 2 mi

Pressure: 29.71 "Hg

Humidity: 84%

Dew Point: 79 °F

Location of BalliaLocation

Past Weather in Ballia — Graph

°F

Ballia Temperature Yesterday

Maximum temperature yesterday: 86 °F (at 2:00 PM)
Minimum temperature yesterday: 79 °F (at 5:30 AM)
Average temperature yesterday: 81 °F

High & Low Weather Summary for the Past Weeks

 TemperatureHumidityPressure
High97 °F (Sep 15, 2:00 PM)100% (Sep 16, 9:30 PM)29.83 "Hg (Sep 16, 9:30 PM)
Low77 °F (Sep 21, 10:00 AM)59% (Sep 23, 1:30 PM)29.53 "Hg (Sep 16, 5:00 PM)
Average85 °F83%29.66 "Hg
* Reported Sep 12 10:30 AM — Sep 27 11:00 AM, Ballia, Weather by CustomWeather, © 2016

Note: Actual official high and low records may vary slightly from our data, if they occured in-between our weather recording intervals... More about our weather records

Advertising

Ballia Weather History for the Previous 24 Hours

Scroll right to see more
 ConditionsComfort  
Time TempWeatherWind HumidityBarometerVisibility
11:00 AM
Tue, Sep 27
82 °FBroken clouds.5 mph89%29.74 "Hg2 mi
10:30 AM82 °FPartly sunny.6 mph89%29.74 "Hg1 mi
10:00 AM82 °FBroken clouds.6 mph84%29.74 "Hg1 mi
9:30 AM82 °FBroken clouds.6 mph84%29.74 "Hg1 mi
9:00 AM82 °FBroken clouds.6 mph89%29.74 "Hg1 mi
8:30 AM81 °FBroken clouds.6 mph94%29.74 "Hg1 mi
8:00 AM81 °FBroken clouds.6 mph89%29.74 "Hg1 mi
7:30 AM79 °FBroken clouds.6 mph94%29.74 "Hg1 mi
7:00 AM79 °FBroken clouds.5 mph94%29.71 "Hg1 mi
6:30 AM79 °FBroken clouds.5 mph94%29.71 "Hg1 mi
5:30 AM79 °FPartly cloudy.6 mph94%29.71 "Hg1 mi
9:00 PM
Mon, Sep 26
81 °FLight rain. Partly cloudy.6 mph94%29.71 "Hg2 mi
8:30 PM81 °FLight rain. Partly cloudy.5 mph94%29.71 "Hg2 mi
8:00 PM81 °FLight rain. Partly cloudy.5 mph94%29.68 "Hg2 mi
7:30 PM81 °FLight rain. Partly cloudy.5 mph94%29.68 "Hg2 mi
7:00 PM81 °FPartly cloudy.5 mph94%29.65 "Hg2 mi
6:30 PM81 °FPartly cloudy.5 mph94%29.65 "Hg2 mi
6:00 PM81 °FBroken clouds.5 mph94%29.65 "Hg2 mi
5:30 PM82 °FBroken clouds.5 mph84%29.65 "Hg2 mi
5:00 PM82 °FBroken clouds.5 mph84%29.65 "Hg2 mi
4:30 PM82 °FBroken clouds.3 mph84%29.62 "Hg2 mi
4:00 PM84 °FBroken clouds.5 mph79%29.65 "Hg2 mi
3:30 PM84 °FBroken clouds.7 mph79%29.65 "Hg2 mi
3:00 PM84 °FBroken clouds.8 mph79%29.65 "Hg2 mi
2:30 PM84 °FBroken clouds.7 mph79%29.65 "Hg2 mi
2:00 PM86 °FBroken clouds.9 mph75%29.65 "Hg2 mi
1:30 PM84 °FBroken clouds.12 mph79%29.65 "Hg2 mi
12:30 PM82 °FBroken clouds.9 mph84%29.68 "Hg2 mi
12:00 PM81 °FBroken clouds.9 mph89%29.71 "Hg2 mi
Weather by CustomWeather, © 2016

See weather overviewHow to use our weather pages